Time,TemperatureF,DewpointF,PressureIn,WindDirection,WindDirectionDegrees,WindSpeedMPH,WindSpeedGustMPH,Humidity,HourlyPrecipIn,Conditions,Clouds,dailyrainin,SoftwareType,DateUTC
2013-11-26 00:10:00,35.8,17.0,30.36,SSW,209,0.0,1.0,47,0.00,,,0.00,weatherlink.com 1.10,2013-11-26 05:10:00,
2013-11-26 00:25:00,36.0,17.0,30.35,SSW,209,0.0,1.0,46,0.00,,,0.00,weatherlink.com 1.10,2013-11-26 05:25:00,
2013-11-26 00:40:00,35.9,18.0,30.36,SSW,209,0.0,1.0,48,0.00,,,0.00,weatherlink.com 1.10,2013-11-26 05:40:00,
2013-11-26 00:55:00,36.0,19.0,30.34,South,177,1.0,2.0,50,0.00,,,0.00,weatherlink.com 1.10,2013-11-26 05:55:00,
2013-11-26 01:10:00,36.0,18.0,30.34,South,177,0.0,0.0,49,0.00,,,0.00,weatherlink.com 1.10,2013-11-26 06:10:00,
2013-11-26 01:25:00,36.1,18.0,30.32,South,177,0.0,0.0,49,0.00,,,0.00,weatherlink.com 1.10,2013-11-26 06:25:00,
2013-11-26 01:40:00,36.1,18.0,30.31,South,177,0.0,0.0,49,0.00,,,0.00,weatherlink.com 1.10,2013-11-26 06:40:00,
2013-11-26 01:55:00,36.1,18.0,30.31,South,177,0.0,0.0,49,0.00,,,0.00,weatherlink.com 1.10,2013-11-26 06:55:00,
2013-11-26 02:10:00,36.0,18.0,30.30,South,177,0.0,2.0,49,0.00,,,0.00,weatherlink.com 1.10,2013-11-26 07:10:00,
2013-11-26 02:25:00,36.2,18.0,30.30,South,177,0.0,1.0,48,0.00,,,0.00,weatherlink.com 1.10,2013-11-26 07:25:00,
2013-11-26 02:40:00,36.4,20.0,30.29,South,177,0.0,2.0,52,0.00,,,0.00,weatherlink.com 1.10,2013-11-26 07:40:00,
2013-11-26 02:55:00,36.6,19.0,30.29,South,171,2.0,3.0,50,0.00,,,0.00,weatherlink.com 1.10,2013-11-26 07:55:00,
2013-11-26 03:10:00,36.7,18.0,30.28,SSE,157,0.0,2.0,47,0.00,,,0.00,weatherlink.com 1.10,2013-11-26 08:10:00,
2013-11-26 03:25:00,36.6,19.0,30.27,SSE,157,0.0,2.0,50,0.00,,,0.00,weatherlink.com 1.10,2013-11-26 08:25:00,
2013-11-26 03:40:00,36.6,19.0,30.27,SSE,157,1.0,2.0,50,0.00,,,0.00,weatherlink.com 1.10,2013-11-26 08:40:00,
2013-11-26 03:55:00,36.8,20.0,30.27,SE,137,1.0,2.0,50,0.00,,,0.00,weatherlink.com 1.10,2013-11-26 08:55:00,
2013-11-26 04:10:00,36.8,20.0,30.27,ENE,58,0.0,3.0,50,0.00,,,0.00,weatherlink.com 1.10,2013-11-26 09:10:00,
2013-11-26 04:25:00,36.8,18.0,30.28,ENE,57,2.0,2.0,47,0.00,,,0.00,weatherlink.com 1.10,2013-11-26 09:25:00,
2013-11-26 04:40:00,36.5,21.0,30.28,NE,56,1.0,3.0,54,0.00,,,0.00,weatherlink.com 1.10,2013-11-26 09:40:00,
2013-11-26 04:55:00,35.3,24.0,30.28,North,355,1.0,3.0,64,0.00,,,0.00,weatherlink.com 1.10,2013-11-26 09:55:00,
2013-11-26 05:10:00,34.7,28.0,30.28,North,5,0.0,2.0,76,0.00,,,0.00,weatherlink.com 1.10,2013-11-26 10:10:00,
2013-11-26 05:25:00,34.1,28.0,30.28,North,5,0.0,3.0,79,0.00,,,0.00,weatherlink.com 1.10,2013-11-26 10:25:00,
2013-11-26 05:40:00,34.0,29.0,30.27,North,5,1.0,3.0,81,0.00,,,0.00,weatherlink.com 1.10,2013-11-26 10:40:00,
2013-11-26 05:55:00,34.3,27.0,30.27,North,9,0.0,3.0,75,0.00,,,0.00,weatherlink.com 1.10,2013-11-26 10:55:00,
2013-11-26 06:10:00,34.2,28.0,30.26,North,355,0.0,4.0,78,0.00,,,0.00,weatherlink.com 1.10,2013-11-26 11:10:00,
2013-11-26 06:25:00,33.9,28.0,30.26,NNE,30,1.0,5.0,78,0.00,,,0.00,weatherlink.com 1.10,2013-11-26 11:25:00,
2013-11-26 06:40:00,33.6,29.0,30.25,NE,53,1.0,5.0,82,0.00,,,0.00,weatherlink.com 1.10,2013-11-26 11:40:00,
2013-11-26 06:55:00,33.5,29.0,30.25,NNW,340,1.0,5.0,84,0.00,,,0.00,weatherlink.com 1.10,2013-11-26 11:55:00,
2013-11-26 07:10:00,33.4,29.0,30.25,NNE,22,1.0,3.0,84,0.00,,,0.00,weatherlink.com 1.10,2013-11-26 12:10:00,
2013-11-26 07:25:00,33.5,30.0,30.24,NNW,339,1.0,6.0,85,0.00,,,0.00,weatherlink.com 1.10,2013-11-26 12:25:00,
2013-11-26 07:41:00,33.2,30.0,30.23,North,5,1.0,3.0,86,0.00,,,0.00,weatherlink.com 1.10,2013-11-26 12:41:00,
2013-11-26 07:56:00,33.1,30.0,30.22,NE,38,0.0,6.0,88,0.00,,,0.00,weatherlink.com 1.10,2013-11-26 12:56:00,
2013-11-26 08:11:00,33.3,30.0,30.21,NE,36,2.0,5.0,89,0.00,,,0.00,weatherlink.com 1.10,2013-11-26 13:11:00,
2013-11-26 08:26:00,33.3,30.0,30.20,NNE,32,3.0,7.0,89,0.01,,,0.01,weatherlink.com 1.10,2013-11-26 13:26:00,
2013-11-26 08:41:00,33.1,30.0,30.20,ENE,67,0.0,5.0,88,0.01,,,0.01,weatherlink.com 1.10,2013-11-26 13:41:00,
2013-11-26 08:56:00,33.2,31.0,30.18,ENE,76,1.0,5.0,90,0.02,,,0.02,weatherlink.com 1.10,2013-11-26 13:56:00,
2013-11-26 09:11:00,33.3,31.0,30.17,ENE,72,4.0,7.0,91,0.02,,,0.02,weatherlink.com 1.10,2013-11-26 14:11:00,
2013-11-26 09:26:00,33.3,31.0,30.16,NE,44,0.0,8.0,92,0.02,,,0.03,weatherlink.com 1.10,2013-11-26 14:26:00,
2013-11-26 09:41:00,33.3,31.0,30.16,NE,50,0.0,7.0,92,0.03,,,0.04,weatherlink.com 1.10,2013-11-26 14:41:00,
2013-11-26 09:56:00,33.6,32.0,30.16,NE,51,0.0,6.0,93,0.02,,,0.04,weatherlink.com 1.10,2013-11-26 14:56:00,
2013-11-26 10:11:00,33.8,32.0,30.16,NE,42,1.0,5.0,93,0.02,,,0.04,weatherlink.com 1.10,2013-11-26 15:11:00,
2013-11-26 10:26:00,34.1,32.0,30.15,NE,41,0.0,6.0,93,0.03,,,0.06,weatherlink.com 1.10,2013-11-26 15:26:00,
2013-11-26 10:41:00,34.5,33.0,30.15,NE,46,3.0,4.0,94,0.04,,,0.08,weatherlink.com 1.10,2013-11-26 15:41:00,
2013-11-26 10:56:00,34.9,33.0,30.13,ESE,105,1.0,6.0,94,0.08,,,0.12,weatherlink.com 1.10,2013-11-26 15:56:00,
2013-11-26 11:11:00,35.2,34.0,30.12,NE,46,2.0,6.0,95,0.09,,,0.13,weatherlink.com 1.10,2013-11-26 16:11:00,
2013-11-26 11:26:00,35.4,34.0,30.11,NNE,19,2.0,7.0,95,0.10,,,0.16,weatherlink.com 1.10,2013-11-26 16:26:00,
2013-11-26 11:41:00,35.8,35.0,30.10,East,84,3.0,5.0,95,0.10,,,0.19,weatherlink.com 1.10,2013-11-26 16:41:00,
2013-11-26 12:11:00,36.4,35.0,30.07,East,98,5.0,5.0,95,0.11,,,0.24,weatherlink.com 1.10,2013-11-26 17:11:00,
2013-11-26 12:26:00,36.6,36.0,30.05,ENE,71,0.0,8.0,96,0.11,,,0.27,weatherlink.com 1.10,2013-11-26 17:26:00,
2013-11-26 12:41:00,37.0,36.0,30.04,ENE,72,2.0,6.0,96,0.10,,,0.29,weatherlink.com 1.10,2013-11-26 17:41:00,
2013-11-26 12:56:00,37.3,36.0,30.02,ENE,68,1.0,9.0,96,0.10,,,0.32,weatherlink.com 1.10,2013-11-26 17:56:00,
2013-11-26 13:11:00,37.5,37.0,30.00,ENE,73,10.0,13.0,96,0.10,,,0.35,weatherlink.com 1.10,2013-11-26 18:11:00,
2013-11-26 13:26:00,37.9,37.0,29.98,East,88,3.0,10.0,96,0.11,,,0.38,weatherlink.com 1.10,2013-11-26 18:26:00,
2013-11-26 13:42:00,38.3,37.0,29.96,East,94,7.0,11.0,96,0.12,,,0.41,weatherlink.com 1.10,2013-11-26 18:42:00,
2013-11-26 13:57:00,38.6,38.0,29.96,East,84,7.0,11.0,96,0.13,,,0.45,weatherlink.com 1.10,2013-11-26 18:57:00,
2013-11-26 14:12:00,39.1,38.0,29.94,East,101,7.0,13.0,97,0.14,,,0.49,weatherlink.com 1.10,2013-11-26 19:12:00,
2013-11-26 14:27:00,39.5,39.0,29.92,East,92,6.0,11.0,97,0.13,,,0.51,weatherlink.com 1.10,2013-11-26 19:27:00,
2013-11-26 14:42:00,40.0,39.0,29.91,East,100,6.0,13.0,97,0.12,,,0.53,weatherlink.com 1.10,2013-11-26 19:42:00,
2013-11-26 14:57:00,40.6,40.0,29.89,ESE,103,7.0,17.0,97,0.08,,,0.53,weatherlink.com 1.10,2013-11-26 19:57:00,
2013-11-26 15:12:00,41.1,40.0,29.87,ESE,119,4.0,17.0,97,0.05,,,0.54,weatherlink.com 1.10,2013-11-26 20:12:00,
2013-11-26 15:42:00,42.0,41.0,29.84,ESE,107,5.0,11.0,97,0.07,,,0.60,weatherlink.com 1.10,2013-11-26 20:42:00,
2013-11-26 15:57:00,42.7,42.0,29.83,East,90,3.0,13.0,97,0.10,,,0.63,weatherlink.com 1.10,2013-11-26 20:57:00,
2013-11-26 16:12:00,43.3,43.0,29.82,ESE,117,7.0,10.0,97,0.11,,,0.65,weatherlink.com 1.10,2013-11-26 21:12:00,
2013-11-26 16:27:00,43.8,43.0,29.80,East,94,6.0,13.0,97,0.10,,,0.66,weatherlink.com 1.10,2013-11-26 21:27:00,
2013-11-26 16:42:00,44.4,44.0,29.78,East,95,5.0,13.0,97,0.07,,,0.67,weatherlink.com 1.10,2013-11-26 21:42:00,
2013-11-26 16:57:00,45.3,45.0,29.77,SSE,156,7.0,12.0,98,0.05,,,0.68,weatherlink.com 1.10,2013-11-26 21:57:00,
2013-11-26 17:12:00,46.0,46.0,29.75,East,100,3.0,11.0,98,0.04,,,0.69,weatherlink.com 1.10,2013-11-26 22:12:00,
2013-11-26 17:27:00,46.8,46.0,29.73,East,100,6.0,11.0,98,0.04,,,0.70,weatherlink.com 1.10,2013-11-26 22:27:00,
2013-11-26 17:42:00,47.7,47.0,29.72,ESE,117,7.0,8.0,98,0.04,,,0.71,weatherlink.com 1.10,2013-11-26 22:42:00,
2013-11-26 17:57:00,48.5,48.0,29.71,ESE,120,3.0,6.0,98,0.04,,,0.72,weatherlink.com 1.10,2013-11-26 22:57:00,
2013-11-26 18:13:00,49.4,49.0,29.70,ESE,111,4.0,10.0,98,0.03,,,0.72,weatherlink.com 1.10,2013-11-26 23:13:00,
2013-11-26 18:28:00,50.4,50.0,29.69,SE,130,3.0,12.0,98,0.02,,,0.72,weatherlink.com 1.10,2013-11-26 23:28:00,
2013-11-26 18:43:00,51.0,51.0,29.68,ESE,118,3.0,9.0,98,0.05,,,0.77,weatherlink.com 1.10,2013-11-26 23:43:00,
2013-11-26 18:58:00,52.6,52.0,29.66,SE,136,7.0,13.0,98,0.10,,,0.82,weatherlink.com 1.10,2013-11-26 23:58:00,
2013-11-26 19:13:00,55.0,55.0,29.65,SE,140,4.0,11.0,98,0.12,,,0.84,weatherlink.com 1.10,2013-11-27 00:13:00,
2013-11-26 19:28:00,56.3,56.0,29.64,South,175,9.0,12.0,98,0.16,,,0.88,weatherlink.com 1.10,2013-11-27 00:28:00,
2013-11-26 19:43:00,57.5,57.0,29.62,ESE,119,11.0,14.0,98,0.13,,,0.90,weatherlink.com 1.10,2013-11-27 00:43:00,
2013-11-26 19:58:00,58.1,58.0,29.62,SE,133,13.0,15.0,98,0.09,,,0.91,weatherlink.com 1.10,2013-11-27 00:58:00,
2013-11-26 20:13:00,58.7,58.0,29.62,SSE,165,2.0,11.0,98,0.10,,,0.95,weatherlink.com 1.10,2013-11-27 01:13:00,
2013-11-26 20:28:00,59.8,59.0,29.61,East,96,2.0,21.0,98,0.07,,,0.95,weatherlink.com 1.10,2013-11-27 01:28:00,
2013-11-26 20:43:00,58.6,58.0,29.64,NW,311,3.0,10.0,98,0.06,,,0.96,weatherlink.com 1.10,2013-11-27 01:43:00,
2013-11-26 20:58:00,48.0,47.0,29.64,NNW,334,3.0,13.0,97,0.26,,,1.17,weatherlink.com 1.10,2013-11-27 01:58:00,
2013-11-26 21:13:00,44.4,44.0,29.65,NW,313,2.0,13.0,97,0.22,,,1.17,weatherlink.com 1.10,2013-11-27 02:13:00,
2013-11-26 21:28:00,43.1,42.0,29.65,NNW,343,3.0,9.0,97,0.24,,,1.19,weatherlink.com 1.10,2013-11-27 02:28:00,
2013-11-26 21:43:00,42.7,42.0,29.64,North,5,3.0,7.0,97,0.23,,,1.19,weatherlink.com 1.10,2013-11-27 02:43:00,
2013-11-26 21:58:00,42.4,42.0,29.62,NW,321,2.0,10.0,97,0.02,,,1.19,weatherlink.com 1.10,2013-11-27 02:58:00,
2013-11-26 22:12:00,42.3,42.0,29.62,NNW,341,3.0,8.0,97,0.03,,,1.20,weatherlink.com 1.10,2013-11-27 03:12:00,
2013-11-26 22:28:00,42.3,42.0,29.62,NNW,348,2.0,7.0,97,0.01,,,1.20,weatherlink.com 1.10,2013-11-27 03:28:00,
2013-11-26 22:43:00,42.3,42.0,29.61,NNW,333,3.0,7.0,97,0.01,,,1.20,weatherlink.com 1.10,2013-11-27 03:43:00,
2013-11-26 22:58:00,42.3,42.0,29.61,NNW,342,2.0,8.0,97,0.01,,,1.20,weatherlink.com 1.10,2013-11-27 03:58:00,
2013-11-26 23:13:00,42.3,42.0,29.60,NNW,345,1.0,7.0,97,0.00,,,1.20,weatherlink.com 1.10,2013-11-27 04:13:00,
2013-11-26 23:28:00,42.3,42.0,29.61,NW,323,3.0,7.0,97,0.03,,,1.23,weatherlink.com 1.10,2013-11-27 04:28:00,
2013-11-26 23:43:00,42.4,42.0,29.60,NNW,343,2.0,7.0,98,0.05,,,1.25,weatherlink.com 1.10,2013-11-27 04:43:00,
2013-11-26 23:58:00,42.6,42.0,29.59,NW,318,6.0,7.0,97,0.08,,,1.28,weatherlink.com 1.10,2013-11-27 04:58:00,